{"data":{"norad_id":55467,"intl_designator":"2023-015U","name":"STARLINK-5679","alt_names":[],"object_type":"PAYLOAD","status":"ACTIVE","operator":null,"country":"US","launch_date":"2023-02-02","launch_site_code":"AFETR","launch_vehicle":null,"mission":null,"orbit_class":"UNKNOWN","rcs_meters":null,"size_class":null,"mass_kg":null,"dimensions":null,"purposes":["comms"],"wikipedia_slug":null,"has_3d_model":false,"image_url":null,"decayed_at":null,"tle_current":{"epoch":"2026-05-24T17:23:16.515744Z","epoch_age_seconds":105833,"freshness":"FRESH","line1":"1 55467U 23015U   26144.72449671 -.00000644  00000+0 -13880-4 0  9994","line2":"2 55467  43.0026 259.0505 0001693 271.7062  88.3595 15.27574616182355","mean_motion":15.27574616,"eccentricity":0.0001693,"inclination_deg":43.0026,"raan_deg":259.0505,"arg_perigee_deg":271.7062,"mean_anomaly_deg":88.3595,"bstar":-1.388e-5,"rev_number":18235,"period_min":94.267080960712,"perigee_km":481.90361618443,"apogee_km":484.22681925535,"semimajor_km":6861.2022177199,"source":"CELESTRAK","updated_at":"2026-05-25T13:38:17.806211Z"}}}